Location: Unnamed
(48.6007°N, 2.4808°E)
Time: 19:30:10
(UTC+02:00)

DX 1 - Pass Details

Date: 08 April 2023
Orbit: 615 x 625 km, 98.4° (Epoch: 04 June)

Event Time Altitude Azimuth Distance (km) Brightness Sun altitude
Rises 23:54:19 0° 19° (NNE) 2,899 ? -28.4°
Reaches altitude 10° 23:56:35 10° 25° (NNE) 1,990 ? -28.6°
Enters shadow 23:58:09 21° 34° (NNE) 1,396 ? -28.7°
